718  
ASUS43 KTOP 140808  
RWRKS  
 
WEATHER ROUNDUP FOR KANSAS  
NATIONAL WEATHER SERVICE GOODLAND KS  
300 AM CDT FRI AUG 14 2020  
 
NOTE: "FAIR" INDICATES FEW OR NO CLOUDS BELOW 12,000 FEET WITH NO  
SIGNIFICANT WEATHER AND/OR S TO VISIBILITY
.  
 
KSZ001>006-013>018-027>032-041>047-140900-  
NORTHWEST KANSAS  
 
CITY SKY/WX TMP DP RH WIND PRES REMARKS
 
GOODLAND CLEAR 68 65 90 S10 30.01F  
HAYS CLEAR 68 66 93 SE5 29.97S  
HILL CITY CLEAR 69 66 90 E5 29.97S  
RUSSELL CLEAR 71 68 90 S8 29.95F  

 
 
KSZ061>065-074>080-084>089-140900-  
SOUTHWEST KANSAS  
 
CITY SKY/WX TMP DP RH WIND PRES REMARKS
 
ELKHART CLEAR 70 69 96 SE9 30.02F  
GARDEN CITY CLEAR 67 66 97 S3 29.99F  
GREAT BEND CLEAR 70 68 93 SE5 29.96F  
LIBERAL CLEAR 72 71 97 E7 30.00F  
PRATT CLEAR 74 73 95 S6 29.95F  

 
 
KSZ066>073-081>083-090>101-140900-  
SOUTHEAST KANSAS  
 
CITY SKY/WX TMP DP RH WIND PRES REMARKS
 
CHANUTE CLEAR 76 71 85 E5 29.93F  
COFFEYVILLE PTCLDY 74 72 93 CALM 29.90F  
HUTCHINSON CLEAR 72 68 87 SE6 29.93F  
MEDICINE LODGE N/A 75 72 90 E5 29.91F  
NEWTON CLEAR 71 69 93 SE8 29.95F  
PARSONS CLEAR 71 69 93 CALM 29.93F  
WICHITA INTL CLEAR 75 69 81 SE7 29.92F  
WICHITA JABRA CLEAR 71 69 93 E3 29.93F  
WICHITA MCCONL CLEAR 75 67 77 S6 29.93F  
WINFIELD CLEAR 76 72 87 E3 29.93F  

 
 
KSZ007>012-019>026-033>040-048>060-102>105-140900-  
NORTHEAST KANSAS  
 
CITY SKY/WX TMP DP RH WIND PRES REMARKS
 
CONCORDIA CLEAR 73 69 87 SE3 29.96S  
EMPORIA CLEAR 72 71 97 E5 29.94F  
LAWRENCE CLEAR 69 69 100 E5 29.95S FOG  
MANHATTAN CLEAR 74 70 87 CALM 29.93F  
MARYSVILLE CLEAR 70 70 100 CALM 29.96S  
OLATHE IND CLEAR 74 71 91 E5 29.97F  
OLATHE EXE CLEAR 73 72 96 SE5 29.97S  
SALINA CLEAR 71 67 87 SE3 29.94S  
TOPEKA BILLARD CLEAR 72 68 87 CALM 29.94F  
TOPEKA FORBES CLEAR 72 71 97 SE5 29.95F  

 
 
 
CLICK HERE TO GO TO PREVIOUS BULLETINS.

The Nexlab KS Page Main Text Page